This demonstration page uses our WeatherBlox Daily Observations layout. Learn more.

Left ArrowRight Arrow

Hourly Observations for August 11, 2021

Temp ( °F °C ) Dew Point ( °F °C ) Humidity (%) Winds ( mph kmh ) Pressure ( in mb ) Visibility ( mi km ) Precip ( " mm )
12:53 am 00:53 Clear with Smoke 80 26.7 56 13.3 44 44 NW 6 9 29.87 1012 10 16 0.00 0.00
1:53 am 01:53 Clear with Smoke 80 26.7 54 12.2 41 41 N 5 7 29.87 1012 10 16 0.00 0.00
2:53 am 02:53 Clear with Smoke 77 25 54 12.2 45 45 N 3 6 29.88 1012 10 16 0.00 0.00
3:53 am 03:53 Clear with Smoke 74 23.3 54 12.2 50 50 NNW 5 7 29.88 1012 10 16 0.00 0.00
4:53 am 04:53 Clear with Smoke 75 23.9 52 11.1 45 45 NNE 3 6 29.88 1012 8 13 0.00 0.00
5:53 am 05:53 Clear with Smoke 70 21.1 53 11.7 55 55 Calm 29.89 1012 8 13 0.00 0.00
6:53 am 06:53 Sunny with Smoke 70 21.1 52 11.1 53 53 N 3 6 29.91 1013 7 11 0.00 0.00
7:53 am 07:53 Hazy 75 23.9 55 12.8 50 50 NW 3 6 29.92 1013 6 10 0.00 0.00
8:53 am 08:53 Hazy 81 27.2 53 11.7 38 38 N 3 6 29.92 1013 5 8 0.00 0.00
9:53 am 09:53 Hazy 88 31.1 50 10 27 27 N 5 7 29.91 1013 5 8 0.00 0.00
10:53 am 10:53 Hazy 92 33.3 50 10 24 24 Calm 29.91 1013 6 10 0.00 0.00
11:53 am 11:53 Sunny with Smoke 95 35 50 10 22 22 VRB 3 6 29.89 1012 7 11 0.00 0.00
12:53 pm 12:53 Sunny with Smoke 97 36.1 50 10 20 20 VRB 3 6 29.87 1011 8 13 0.00 0.00
1:53 pm 13:53 Sunny with Smoke 101 38.3 45 7.2 15 15 VRB 3 6 29.84 1011 10 16 0.00 0.00
2:53 pm 14:53 Sunny with Smoke 103 39.4 45 7.2 14 14 SSW 5 7 29.81 1010 7 11 0.00 0.00
3:53 pm 15:53 Sunny with Smoke 103 39.4 45 7.2 14 14 VRB 3 6 29.78 1009 8 13 0.00 0.00
4:53 pm 16:53 Hazy 104 40 44 6.7 13 13 SSW 6 9 29.76 1008 6 10 0.00 0.00
5:53 pm 17:53 Hazy 103 39.4 42 5.6 12 12 S 5 7 29.75 1008 6 10 0.00 0.00
6:53 pm 18:53 Hazy 100 37.8 47 8.3 16 16 Calm 29.75 1007 6 10 0.00 0.00
7:53 pm 19:53 Hazy 96 35.6 48 8.9 19 19 Calm 29.75 1008 6 10 0.00 0.00
8:53 pm 20:53 Cloudy with Smoke 93 33.9 50 10 23 23 Calm 29.77 1008 7 11 0.00 0.00
9:53 pm 21:53 Cloudy with Smoke 89 31.7 49 9.4 25 25 Calm 29.80 1009 7 11 0.00 0.00
10:53 pm 22:53 Cloudy with Smoke 86 30 50 10 29 29 SE 5 7 29.82 1010 8 13 0.00 0.00
11:53 pm 23:53 Cloudy with Smoke 83 28.3 52 11.1 34 34 NNW 3 6 29.83 1010 8 13 0.00 0.00

Powered by AerisWeather